Location: Newark
(41.8083°N, 72.2500°W)
Time: 10:18:58
(UTC+00:00)

Explorer 11/Cluster Stage 4 - Pass Details

Date: 12 December 2021
Orbit: 467 x 1255 km, 28.8° (Epoch: 24 January)

Event Time Altitude Azimuth Distance (km) Brightness Sun altitude
Rises 06:56:24 0° 248° (WSW) 3,019 - -56.5°
Reaches altitude 10° 06:59:31 10° 226° (SW) 2,257 - -56.0°
Maximum altitude 07:02:41 16° 190° (S) 2,032 - -55.4°
Drops below altitude 10° 07:06:14 10° 155° (SSE) 2,585 - -54.8°
Sets 07:10:12 0° 135° (SE) 3,711 - -54.1°
